Terminal Aerodrome Forecast
Issued by NWS Austin/San Antonio, TX

Home | Current Version | Previous Version | Text Only | Print | Product List | Glossary On
Versions: 1 2 3 4 5 6 7 8 9 10 11 12 13 14 15 16
000
FTUS44 KEWX 231700
TAFSAT
TAF
KSAT 231725Z 2318/2424 09007KT P6SM SCT050 SCT120
     FM240400 VRB03KT P6SM FEW250
     FM241700 11006KT P6SM FEW250=

USA.gov is the U.S. government's official web portal to all federal, state and local government web resources and services.